This demonstration page uses our WeatherBlox Daily Observations layout. Learn more.

Left ArrowRight Arrow

38.89511, -77.03637

Hourly Observations for January 19, 2019

Temp ( °F °C ) Dew Point ( °F °C ) Humidity (%) Winds ( mph kmh ) Pressure ( in mb ) Visibility ( mi km ) Precip ( " mm )
12:52 am 00:52 Cloudy with Mist and Fog 37 2.8 35 1.7 93 93 S 3 6 30.21 1023 5 8 0.00 0.00
1:52 am 01:52 Cloudy with Mist and Fog 38 3.3 35 1.7 89 89 SE 3 6 30.22 1023 6 10 0.00 0.00
2:52 am 02:52 Cloudy 38 3.3 34 1.1 86 86 Calm 30.22 1023 7 11 0.00 0.00
3:52 am 03:52 Cloudy 38 3.3 34 1.1 86 86 Calm 30.20 1023 8 13 0.00 0.00
4:52 am 04:52 Cloudy 39 3.9 33 0.6 79 79 ENE 3 6 30.19 1023 10 16 0.00 0.00
5:52 am 05:52 Cloudy 39 3.9 33 0.6 79 79 ESE 3 6 30.19 1022 10 16 0.00 0.00
6:52 am 06:52 Cloudy 39 3.9 33 0.6 79 79 ESE 3 6 30.20 1023 9 14 0.00 0.00
7:52 am 07:52 Cloudy 39 3.9 33 0.6 79 79 E 5 7 30.21 1023 8 13 0.00 0.00
8:52 am 08:52 Cloudy 39 3.9 33 0.6 79 79 ESE 5 7 30.22 1023 8 13 0.00 0.00
9:52 am 09:52 Cloudy 39 3.9 32 0 76 76 E 6 9 30.23 1024 9 14 0.00 0.00
10:52 am 10:52 Cloudy 39 3.9 31 -0.6 73 73 ESE 9 15 30.21 1023 8 13 0.00 0.00
11:52 am 11:52 Cloudy 39 3.9 32 0 76 76 E 8 13 30.18 1022 7 11 0.00 0.00
12:52 pm 12:52 Cloudy with Haze 39 3.9 32 0 76 76 ESE 7 11 30.14 1021 6 10 0.00 0.00
1:52 pm 13:52 Cloudy with Haze 40 4.4 33 0.6 77 77 E 8 13 30.06 1018 6 10 0.00 0.03
2:52 pm 14:52 Cloudy with Haze 40 4.4 33 0.6 77 77 E 8 13 30.05 1018 6 10 0.00 0.00
3:17 pm 15:17 Cloudy with Haze 40 4.4 33 0.6 77 77 E 10 17 30.03 1017 6 10 0.00 0.00
3:52 pm 15:52 Cloudy with Haze 39 3.9 33 0.6 79 79 E 9 15 30.01 1016 6 10 0.00 0.00
4:52 pm 16:52 Cloudy 39 3.9 33 0.6 79 79 ENE 8 13 29.98 1015 7 11 0.00 0.03
5:46 pm 17:46 Cloudy 39 4 34 1 81 81 ENE 8 13 29.94 1014 8 13 0.01 0.25
5:52 pm 17:52 Cloudy with Light Rain 39 3.9 34 1.1 82 82 NE 8 13 29.92 1013 8 13 0.01 0.25
6:52 pm 18:52 Cloudy with Light Rain 39 3.9 34 1.1 82 82 ENE 9 15 29.85 1011 8 13 0.00 0.03
7:40 pm 19:40 Cloudy with Rain 39 3.9 35 1.7 86 86 NE 8 13 29.83 1010 5 8 0.03 0.76
7:45 pm 19:45 Cloudy with Rain 39 3.9 35 1.7 86 86 NE 8 13 29.80 1009 4 6 0.04 1.02
7:52 pm 19:52 Cloudy with Rain 39 3.9 35 1.7 86 86 NE 8 13 29.81 1009 3 5 0.06 1.52
8:03 pm 20:03 Cloudy with Rain 39 3.9 36 2.2 89 89 NNE 8 13 29.80 1009 3 4 0.02 0.51
8:20 pm 20:20 Cloudy with Heavy Rain 39 3.9 36 2.2 89 89 NNE 6 9 29.80 1009 3 4 0.09 2.29
8:52 pm 20:52 Cloudy with Rain 39 3.9 36 2.2 89 89 NW 9 15 29.79 1009 3 4 0.21 5.33
8:54 pm 20:54 Cloudy with Light Rain 39 3.9 36 2.2 89 89 NW 9 15 29.80 1009 3 5 0.00 0.03
9:10 pm 21:10 Cloudy with Rain 39 3.9 36 2.2 89 89 N 7 11 29.77 1008 3 4 0.02 0.51
9:52 pm 21:52 Cloudy with Rain 39 3.9 37 2.8 93 93 N 7 11 29.73 1007 3 4 0.12 3.05
9:58 pm 21:58 Cloudy with Rain 39 3.9 37 2.8 93 93 NE 9 15 29.74 1007 3 5 0.01 0.25
10:02 pm 22:02 Cloudy with Rain 39 3.9 37 2.8 93 93 NE 7 11 29.74 1007 3 5 0.01 0.25
10:06 pm 22:06 Cloudy with Rain 39 3.9 37 2.8 93 93 NE 7 11 29.74 1007 3 5 0.02 0.51
10:09 pm 22:09 Cloudy with Rain 39 3.9 37 2.8 93 93 NE 7 11 29.74 1007 3 5 0.03 0.76
10:21 pm 22:21 Cloudy with Rain 39 3.9 37 2.8 93 93 NNE 6 9 29.74 1007 3 5 0.06 1.52
10:40 pm 22:40 Cloudy with Rain 39 3.9 37 2.8 93 93 N 5 7 29.71 1006 3 4 0.10 2.54
10:52 pm 22:52 Cloudy with Rain 40 4.4 37 2.8 89 89 NNE 5 7 29.71 1006 3 5 0.13 3.30
11:52 pm 23:52 Cloudy with Rain 40 4.4 37 2.8 89 89 NE 6 9 29.68 1005 4 6 0.07 1.78

Powered by AerisWeather